Weather History for KEAR - April, 2014

Change the Weather History Date:

Thursday, April 3, 2014

  Actual Average Record
Temperature  
Mean Temperature 36 °F 44 °F  
Max Temperature 37 °F 58 °F 86 °F (1981)
Min Temperature 34 °F 31 °F 12 °F (1975)
Degree Days  
Heating Degree Days 29 21  
Month to date heating degree days 64  
Since 1 July heating degree days 5836  
Cooling Degree Days 0 0  
Month to date cooling degree days 0  
Year to date cooling degree days 0  
Moisture  
Dew Point 32 °F    
Average Humidity 84    
Maximum Humidity 92    
Minimum Humidity 75    
Precipitation  
Precipitation 0.12 in - 2.50 in (1897)
Sea Level Pressure  
Sea Level Pressure 29.80 in    
Wind  
Wind Speed 18 mph (North)    
Max Wind Speed 24 mph    
Max Gust Speed 30 mph    
Visibility 5 miles    
Events Thunderstorm    
T = Trace of Precipitation, MM = Missing Value Source: NWS Daily Summary

Daily Weather History Graph

Daily Weather History Graph

Search for Another Location

Airport or City:

Trip Planner

Search our weather history database for the weather conditions in past years. The results will help you decide how hot, cold, wet, or windy it might be!

Date:

Astronomy

Apr. 03, 2014 Rise Set
Actual Time 7:16 AM CDT 8:02 PM CDT
Civil Twilight 6:48 AM CDT 8:30 PM CDT
Nautical Twilight 6:15 AM CDT 9:03 PM CDT
Astronomical Twilight 5:41 AM CDT 9:37 PM CDT
Moon 9:45 AM CDT No Moon Set
Length of Visible Light 13h 42m
Length of Day
12h 46m
Waxing Crescent, 17% of the Moon is Illuminated
Apr 3
Waxing Crescent
Apr 7
First Quarter
Apr 15
Full
Apr 22
Last Quarter
Apr 29
New

Hourly Weather History & Observations

Time (CDT) Temp. Windchill Dew Point Humidity Pressure Visibility Wind Dir Wind Speed Gust Speed Precip Events Conditions
12:15 AM 35.6 °F 26.2 °F 33.8 °F 93% 29.79 in 5.0 mi North 15.0 mph - N/A   Overcast
12:35 AM 35.6 °F 26.2 °F 33.8 °F 93% 29.79 in 5.0 mi North 15.0 mph - N/A   Overcast
12:55 AM 35.6 °F 26.6 °F 33.8 °F 93% 29.78 in 5.0 mi North 13.8 mph - N/A   Overcast
1:15 AM 35.6 °F 26.6 °F 33.8 °F 93% 29.78 in 5.0 mi North 13.8 mph - N/A   Overcast
1:35 AM 35.6 °F 26.2 °F 33.8 °F 93% 29.77 in 4.0 mi North 15.0 mph 19.6 mph N/A   Overcast
1:55 AM 35.6 °F 26.2 °F 33.8 °F 93% 29.76 in 3.0 mi North 15.0 mph - N/A   Overcast
2:15 AM 35.6 °F 26.6 °F 33.8 °F 93% 29.76 in 3.0 mi NNE 13.8 mph - N/A   Overcast
2:35 AM 35.6 °F 26.2 °F 33.8 °F 93% 29.76 in 3.0 mi North 15.0 mph - N/A Thunderstorm Overcast
2:55 AM 35.6 °F 27.1 °F 33.8 °F 93% 29.77 in 4.0 mi NNE 12.7 mph - N/A   Overcast
3:15 AM 35.6 °F 26.2 °F 33.8 °F 93% 29.75 in 5.0 mi NNE 15.0 mph - N/A   Overcast
3:35 AM 35.6 °F 26.2 °F 33.8 °F 93% 29.74 in 5.0 mi North 15.0 mph - N/A   Overcast
3:55 AM 37.4 °F 28.2 °F 33.8 °F 87% 29.75 in 6.0 mi NNE 16.1 mph - N/A   Overcast
4:15 AM 37.4 °F 28.2 °F 33.8 °F 87% 29.74 in 6.0 mi NNE 16.1 mph - N/A   Overcast
4:35 AM 37.4 °F 28.9 °F 33.8 °F 87% 29.74 in 7.0 mi North 13.8 mph - N/A   Overcast
4:55 AM 37.4 °F 28.5 °F 33.8 °F 87% 29.74 in 7.0 mi North 15.0 mph - N/A   Overcast
5:15 AM 37.4 °F 28.2 °F 33.8 °F 87% 29.74 in 10.0 mi North 16.1 mph - N/A   Overcast
5:35 AM 37.4 °F 27.8 °F 33.8 °F 87% 29.74 in 9.0 mi NNE 17.3 mph 20.7 mph N/A   Overcast
5:55 AM 35.6 °F 25.5 °F 33.8 °F 93% 29.74 in 8.0 mi NNE 17.3 mph 25.3 mph N/A   Overcast
6:15 AM 35.6 °F 26.2 °F 33.8 °F 93% 29.74 in 8.0 mi North 15.0 mph 24.2 mph N/A   Overcast
6:35 AM 35.6 °F 25.9 °F 33.8 °F 93% 29.74 in 6.0 mi North 16.1 mph - N/A   Overcast
6:55 AM 35.6 °F 25.9 °F 33.8 °F 93% 29.74 in 8.0 mi NNE 16.1 mph - N/A   Overcast
7:15 AM 35.6 °F 25.5 °F 33.8 °F 93% 29.76 in 8.0 mi North 17.3 mph - N/A   Overcast
7:35 AM 35.6 °F 25.5 °F 33.8 °F 93% 29.76 in 7.0 mi North 17.3 mph - N/A   Overcast
7:55 AM 35.6 °F 24.8 °F 33.8 °F 93% 29.76 in 5.0 mi North 19.6 mph - N/A   Overcast
8:15 AM 35.6 °F 25.2 °F 33.8 °F 93% 29.77 in 5.0 mi North 18.4 mph 24.2 mph N/A   Overcast
8:35 AM 35.6 °F 24.8 °F 33.8 °F 93% 29.77 in 3.0 mi North 19.6 mph - N/A   Overcast
8:55 AM 35.6 °F 25.5 °F 33.8 °F 93% 29.77 in 2.0 mi North 17.3 mph - 0.01 in   Overcast
9:15 AM 35.6 °F 24.2 °F 33.8 °F 93% 29.77 in 3.0 mi North 21.9 mph - N/A   Overcast
9:35 AM 35.6 °F 25.5 °F 33.8 °F 93% 29.77 in 4.0 mi North 17.3 mph - 0.01 in   Overcast
9:55 AM 35.6 °F 24.8 °F 33.8 °F 93% 29.77 in 3.0 mi North 19.6 mph 25.3 mph 0.01 in   Overcast
10:15 AM 35.6 °F 24.2 °F 33.8 °F 93% 29.77 in 3.0 mi North 21.9 mph - N/A   Overcast
10:35 AM 35.6 °F 24.0 °F 33.8 °F 93% 29.77 in 3.0 mi North 23.0 mph 27.6 mph N/A   Overcast
10:55 AM 35.6 °F 24.0 °F 33.8 °F 93% 29.78 in 4.0 mi North 23.0 mph - N/A   Overcast
11:15 AM 35.6 °F 24.8 °F 33.8 °F 93% 29.78 in 4.0 mi North 19.6 mph 29.9 mph N/A   Overcast
11:35 AM 35.6 °F 24.5 °F 33.8 °F 93% 29.78 in 3.0 mi North 20.7 mph - N/A   Overcast
11:55 AM 35.6 °F 24.2 °F 33.8 °F 93% 29.77 in 4.0 mi North 21.9 mph 27.6 mph N/A   Overcast
12:15 PM 35.6 °F 23.7 °F 33.8 °F 93% 29.77 in 4.0 mi North 24.2 mph 28.8 mph N/A   Overcast
12:35 PM 35.6 °F 23.7 °F 33.8 °F 93% 29.77 in 4.0 mi North 24.2 mph 27.6 mph N/A   Overcast
12:55 PM 35.6 °F 23.7 °F 33.8 °F 93% 29.76 in 3.0 mi North 24.2 mph 28.8 mph N/A   Overcast
1:15 PM 35.6 °F 24.2 °F 32.0 °F 87% 29.77 in 3.0 mi North 21.9 mph 27.6 mph N/A   Overcast
1:35 PM 35.6 °F 23.4 °F 33.8 °F 93% 29.77 in 3.0 mi North 25.3 mph 28.8 mph N/A   Overcast
1:55 PM 35.6 °F 24.0 °F 33.8 °F 93% 29.77 in 2.5 mi North 23.0 mph 29.9 mph N/A   Overcast
2:15 PM 35.6 °F 24.5 °F 33.8 °F 93% 29.77 in 4.0 mi North 20.7 mph - N/A   Overcast
2:35 PM 35.6 °F 23.7 °F 33.8 °F 93% 29.78 in 4.0 mi North 24.2 mph 27.6 mph N/A   Overcast
2:55 PM 35.6 °F 24.0 °F 33.8 °F 93% 29.78 in 3.0 mi North 23.0 mph 26.5 mph N/A   Overcast
3:15 PM 35.6 °F 23.7 °F 32.0 °F 87% 29.78 in 2.5 mi North 24.2 mph 29.9 mph 0.01 in   Overcast
3:35 PM 35.6 °F 24.5 °F 32.0 °F 87% 29.79 in 3.0 mi North 20.7 mph 31.1 mph 0.01 in   Overcast
3:55 PM 35.6 °F 24.0 °F 32.0 °F 87% 29.79 in 3.0 mi North 23.0 mph 29.9 mph 0.01 in   Overcast
4:15 PM 33.8 °F 23.2 °F 30.2 °F 87% 29.80 in 3.0 mi North 17.3 mph 24.2 mph 0.01 in   Overcast
4:35 PM 33.8 °F 22.5 °F 30.2 °F 87% 29.81 in 1.8 mi North 19.6 mph 25.3 mph 0.01 in   Overcast
4:55 PM 33.8 °F 23.9 °F 30.2 °F 87% 29.81 in 2.0 mi North 15.0 mph 20.7 mph 0.02 in   Overcast
5:15 PM 33.8 °F 24.8 °F 30.2 °F 87% 29.82 in 1.5 mi North 12.7 mph - 0.01 in   Overcast
5:35 PM 33.8 °F 24.3 °F 30.2 °F 87% 29.82 in 1.8 mi NNW 13.8 mph - 0.01 in   Overcast
5:55 PM 33.8 °F 24.3 °F 30.2 °F 87% 29.83 in 1.8 mi NNW 13.8 mph 25.3 mph 0.02 in   Overcast
6:15 PM 33.8 °F 22.2 °F 30.2 °F 87% 29.83 in 1.0 mi North 20.7 mph 24.2 mph N/A   Overcast
6:35 PM 33.8 °F 21.6 °F 30.2 °F 87% 29.84 in 1.5 mi North 23.0 mph 28.8 mph 0.01 in   Overcast
6:55 PM 33.8 °F 21.9 °F 30.2 °F 87% 29.85 in 1.8 mi North 21.9 mph 25.3 mph 0.01 in   Overcast
7:15 PM 33.8 °F 22.5 °F 30.2 °F 87% 29.86 in 2.5 mi NNW 19.6 mph 26.5 mph 0.01 in   Overcast
7:35 PM 33.8 °F 23.5 °F 30.2 °F 87% 29.88 in 2.5 mi NNW 16.1 mph 24.2 mph 0.01 in   Overcast
7:55 PM 33.8 °F 23.5 °F 30.2 °F 87% 29.89 in 1.5 mi NNW 16.1 mph - 0.01 in   Overcast
8:15 PM 33.8 °F 22.8 °F 30.2 °F 87% 29.90 in 1.0 mi NNW 18.4 mph 24.2 mph N/A   Overcast
8:35 PM 33.8 °F 23.5 °F 30.2 °F 87% 29.91 in 2.5 mi NNW 16.1 mph - N/A   Overcast
8:55 PM 33.8 °F 24.3 °F 30.2 °F 87% 29.92 in 10.0 mi NNW 13.8 mph - N/A   Overcast
9:15 PM 33.8 °F 23.5 °F 28.4 °F 81% 29.94 in 10.0 mi NNW 16.1 mph 23.0 mph 0.01 in   Overcast
9:35 PM 33.8 °F 24.3 °F 28.4 °F 81% 29.95 in 10.0 mi NNW 13.8 mph - 0.02 in   Overcast
10:55 PM 33.8 °F 24.8 °F 28.4 °F 81% 29.98 in 10.0 mi NW 12.7 mph - 0.01 in   Overcast
11:15 PM 33.8 °F 24.8 °F 28.4 °F 81% 29.98 in 10.0 mi NW 12.7 mph 21.9 mph N/A   Overcast
11:35 PM 33.8 °F 23.5 °F 26.6 °F 75% 29.98 in 10.0 mi NNW 16.1 mph 20.7 mph N/A   Overcast
11:55 PM 33.8 °F 23.5 °F 26.6 °F 75% 29.98 in 10.0 mi NNW 16.1 mph 19.6 mph N/A   Overcast